Overview Statistics Trail Chart Weather Telemetry Raw packets
 

This is the latest recevied weather packets stored in our database for station/object WX0ABE-13. If no packets are shown the sender has not sent any weather packets the latest 10 day(s).

<< 67 68 69 70 71 72 73 >>
Time Temp. Humidity Pressure Rain* Wind** Luminosity Snow
1787869321 33.89° C 28% 1018.6 hPa 0 mm - 381 W/m² -
1787869020 33.89° C 28% 1018.7 hPa 0 mm - 393 W/m² -
1787868719 33.89° C 29% 1018.9 hPa 0 mm - 407 W/m² -
1787868418 33.89° C 29% 1018.9 hPa 0 mm - 406 W/m² -
1787868112 33.33° C 29% 1018.7 hPa 0 mm - 287 W/m² -
1787867808 33.89° C 29% 1019 hPa 0 mm - 109 W/m² -
1787867504 33.33° C 29% 1019 hPa 0 mm - 149 W/m² -
1787867203 33.33° C 30% 1019.1 hPa 0 mm - 404 W/m² -
1787866899 33.89° C 30% 1019.3 hPa 0 mm - 474 W/m² -
1787866594 33.89° C 30% 1019.2 hPa 0 mm - 487 W/m² -
1787866292 32.78° C 31% 1019.3 hPa 0 mm - 497 W/m² -
1787865987 33.33° C 30% 1019.3 hPa 0 mm - 507 W/m² -
1787865684 33.33° C 30% 1019.6 hPa 0 mm - 518 W/m² -
1787865383 33.33° C 30% 1019.6 hPa 0 mm - 525 W/m² -
1787865078 32.78° C 30% 1019.8 hPa 0 mm - 537 W/m² -
1787864774 32.78° C 30% 1019.6 hPa 0 mm - 546 W/m² -
1787864474 33.33° C 30% 1020 hPa 0 mm - 556 W/m² -
1787864174 32.78° C 30% 1020.1 hPa 0 mm - 565 W/m² -
1787863868 32.78° C 30% 1019.9 hPa 0 mm - 573 W/m² -
1787863566 33.33° C 31% 1020.1 hPa 0 mm - 581 W/m² -
1787863262 33.33° C 31% 1020.4 hPa 0 mm - 588 W/m² -
1787862957 32.78° C 30% 1020.3 hPa 0 mm - 595 W/m² -
1787862652 32.78° C 31% 1020.4 hPa 0 mm - 603 W/m² -
1787862349 32.78° C 31% 1020.4 hPa 0 mm - 609 W/m² -
1787862043 32.78° C 31% 1020.3 hPa 0 mm - 617 W/m² -

* Rain latest hour (hover to see other rain measurements)
** Current wind speed in m/s (hover to see current wind gust speed)